Change the Weather History Date:

Sunday, January 6, 2013

  Actual Average Record
Temperature  
Mean Temperature -1 °F 20 °F  
Max Temperature 14 °F 33 °F 49 °F (2012)
Min Temperature -16 °F 6 °F -16 °F (2013)
Degree Days  
Heating Degree Days 66 45  
Month to date heating degree days 395 273  
Since 1 July heating degree days 3426 3562  
Cooling Degree Days 0 0  
Month to date cooling degree days 0 0  
Year to date cooling degree days 0 0  
Moisture  
Dew Point -5 °F    
Average Humidity 79    
Maximum Humidity 91    
Minimum Humidity 67    
Precipitation  
Precipitation 0.00 in 0.03 in 0.34 in (2008)
Month to date precipitation T 0.21  
Year to date precipitation T 0.21  
Sea Level Pressure  
Sea Level Pressure 30.53 in    
Wind  
Wind Speed 1 mph (NE)    
Max Wind Speed 8 mph    
Max Gust Speed 8 mph    
Visibility 10 miles    
Events      
T = Trace of Precipitation, MM = Missing Value Source: NWS Daily Summary

Daily Weather History Graph

Daily Weather History Graph

Search for Another Location

Airport or City:

Trip Planner

Search our weather history database for the weather conditions in past years. The results will help you decide how hot, cold, wet, or windy it might be!

Date:

Astronomy

Jan. 06, 2013 Rise Set
Actual Time 7:33 AM MST 5:01 PM MST
Civil Twilight 7:03 AM MST 5:31 PM MST
Nautical Twilight 6:29 AM MST 6:05 PM MST
Astronomical Twilight 5:56 AM MST 6:38 PM MST
Moon 1:51 AM MST (1/6) 12:31 PM MST (1/6)
Length of Visible Light 10h 28m
Length of Day
9h 28m
Waning Crescent, 32% of the Moon is Illuminated
Jan 6
Waning Crescent
Jan 11
New
Jan 18
First Quarter
Jan 26
Full
Feb 3
Last Quarter

Hourly Weather History & Observations

Time (MST) Temp. Windchill Dew Point Humidity Pressure Visibility Wind Dir Wind Speed Gust Speed Precip Events Conditions
12:53 AM -9.9 °F - -14.1 °F 82% 30.65 in 10.0 mi Calm Calm - N/A   Clear
1:53 AM -11.9 °F - -16.1 °F 82% 30.63 in 10.0 mi Calm Calm - N/A   Clear
2:53 AM -11.9 °F - -15.0 °F 86% 30.61 in 10.0 mi Calm Calm - N/A   Clear
3:53 AM -11.0 °F - -15.0 °F 83% 30.59 in 10.0 mi Calm Calm - N/A   Clear
4:53 AM -13.0 °F - -18.0 °F 78% 30.64 in 10.0 mi Calm Calm - N/A   Clear
5:53 AM -14.1 °F -23.9 °F -18.0 °F 82% 30.70 in 10.0 mi East 3.5 mph - N/A   Clear
6:53 AM -14.1 °F - -18.0 °F 82% 30.68 in 10.0 mi Calm Calm - N/A   Clear
7:53 AM -15.0 °F - -18.9 °F 82% 30.69 in 10.0 mi Calm Calm - N/A   Clear
9:53 AM -0.0 °F - -2.9 °F 88% 30.62 in 10.0 mi Calm Calm - N/A   Clear
11:53 AM 9.0 °F - -0.0 °F 67% 30.53 in 10.0 mi Calm Calm - N/A   Clear
12:53 PM 12.0 °F - 3.0 °F 67% 30.48 in 10.0 mi Calm Calm - N/A   Clear
1:53 PM 10.9 °F - 3.0 °F 70% 30.47 in 10.0 mi Calm Calm - N/A   Clear
2:53 PM 12.9 °F 6.9 °F 3.9 °F 67% 30.43 in 10.0 mi NE 3.5 mph - N/A   Clear
3:53 PM 12.9 °F - 3.9 °F 67% 30.44 in 10.0 mi Calm Calm - N/A   Clear
4:53 PM 12.0 °F - 5.0 °F 73% 30.45 in 10.0 mi Calm Calm - N/A   Scattered Clouds
5:53 PM 14.0 °F - 6.1 °F 71% 30.43 in 10.0 mi Calm Calm - N/A   Mostly Cloudy
6:53 PM 10.9 °F 4.7 °F 5.0 °F 77% 30.45 in 10.0 mi WSW 3.5 mph - N/A   Mostly Cloudy
7:53 PM 9.0 °F 2.4 °F 3.0 °F 77% 30.45 in 10.0 mi NNE 3.5 mph - N/A   Clear
8:53 PM 9.0 °F - 3.9 °F 80% 30.41 in 10.0 mi Calm Calm - N/A   Clear
9:53 PM 3.9 °F - -0.0 °F 84% 30.40 in 10.0 mi Calm Calm - N/A   Clear
10:53 PM -2.9 °F - -7.1 °F 82% 30.43 in 10.0 mi Calm Calm - N/A   Clear
11:53 PM -2.9 °F - -7.1 °F 82% 30.40 in 10.0 mi Calm Calm - N/A   Clear